Weather History for Cincinnati, OH

Change the Weather History Date:

Tuesday, October 15, 2013

  Actual Average Record
Temperature  
Mean Temperature 62 °F -  
Max Temperature 73 °F 71 °F 85 °F (1962)
Min Temperature 50 °F 46 °F 28 °F (2006)
Degree Days  
Heating Degree Days 4    
Growing Degree Days 12 (Base 50)    
Moisture  
Dew Point 57 °F    
Average Humidity 87    
Maximum Humidity 100    
Minimum Humidity 66    
Precipitation  
Precipitation 0.00 in - - ()
Sea Level Pressure  
Sea Level Pressure 30.07 in    
Wind  
Wind Speed 4 mph (SSW)    
Max Wind Speed 13 mph    
Max Gust Speed -    
Visibility 8 miles    
Events      
Averages and records for this station are not official NWS values.
T = Trace of Precipitation, MM = Missing Value Source: NWS Daily Summary

Daily Weather History Graph

Daily Weather History Graph

Search for Another Location

Airport:

Trip Planner

Search our weather history database for the weather conditions in past years. The results will help you decide how hot, cold, wet, or windy it might be!

Date:

Astronomy

Oct. 15, 2013 Rise Set
Actual Time 7:47 AM EDT 6:58 PM EDT
Civil Twilight 7:20 AM EDT 7:25 PM EDT
Nautical Twilight 6:49 AM EDT 7:56 PM EDT
Astronomical Twilight 6:18 AM EDT 8:27 PM EDT
Moon 5:02 PM EDT (10/15) 4:10 AM EDT (10/15)
Length of Visible Light 12h 04m
Length of Day
11h 11m
Waxing Gibbous, 87% of the Moon is Illuminated
Oct 15
Waxing Gibbous
Oct 18
Full
Oct 26
Last Quarter
Nov 3
New
Nov 10
First Quarter

Hourly Weather History & Observations

Time (EDT) Temp. Dew Point Humidity Pressure Visibility Wind Dir Wind Speed Gust Speed Precip Events Conditions
12:53 AM 51.1 °F 51.1 °F 100% 30.19 in 10.0 mi NE 4.6 mph - N/A   Clear
1:53 AM 51.1 °F 50.0 °F 96% 30.18 in 7.0 mi Calm Calm - N/A   Clear
2:53 AM 50.0 °F 50.0 °F 100% 30.16 in 5.0 mi NE 3.5 mph - N/A   Clear
3:53 AM 51.1 °F 50.0 °F 96% 30.16 in 5.0 mi Calm Calm - N/A   Clear
4:43 AM 51.8 °F 51.8 °F 100% 30.14 in 8.0 mi NNE 3.5 mph - N/A   Mostly Cloudy
4:53 AM 52.0 °F 51.1 °F 97% 30.14 in 8.0 mi NNE 3.5 mph - N/A   Mostly Cloudy
5:11 AM 51.8 °F 51.8 °F 100% 30.14 in 7.0 mi Calm Calm - N/A   Scattered Clouds
5:32 AM 51.8 °F 51.8 °F 100% 30.13 in 7.0 mi Calm Calm - N/A   Mostly Cloudy
5:53 AM 53.1 °F 52.0 °F 96% 30.13 in 8.0 mi Calm Calm - N/A   Overcast
6:53 AM 54.0 °F 53.1 °F 97% 30.13 in 8.0 mi Calm Calm - N/A   Overcast
7:20 AM 55.4 °F 53.6 °F 94% 30.11 in 8.0 mi Calm Calm - N/A   Overcast
7:53 AM 55.9 °F 55.0 °F 97% 30.11 in 8.0 mi Calm Calm - N/A   Overcast
8:53 AM 57.9 °F 55.9 °F 93% 30.11 in 6.0 mi Calm Calm - N/A   Overcast
9:53 AM 61.0 °F 59.0 °F 93% 30.11 in 5.0 mi SSW 5.8 mph - N/A   Overcast
10:53 AM 62.1 °F 60.1 °F 93% 30.11 in 6.0 mi South 3.5 mph - N/A   Overcast
11:31 AM 64.4 °F 60.8 °F 88% 30.09 in 8.0 mi South 4.6 mph - N/A   Overcast
11:53 AM 66.0 °F 61.0 °F 84% 30.09 in 10.0 mi SSW 6.9 mph - N/A   Overcast
12:53 PM 72.0 °F 63.0 °F 73% 30.06 in 10.0 mi SSW 10.4 mph - N/A   Mostly Cloudy
1:00 PM 71.6 °F 62.6 °F 73% 30.06 in 10.0 mi SSW 8.1 mph - N/A   Mostly Cloudy
1:53 PM 73.0 °F 61.0 °F 66% 30.04 in 10.0 mi SW 12.7 mph - N/A   Scattered Clouds
2:53 PM 72.0 °F 62.1 °F 71% 30.01 in 10.0 mi SW 8.1 mph - N/A   Mostly Cloudy
3:53 PM 72.0 °F 62.1 °F 71% 30.00 in 10.0 mi South 9.2 mph - N/A   Scattered Clouds
4:53 PM 72.0 °F 62.1 °F 71% 29.99 in 10.0 mi South 9.2 mph - N/A   Scattered Clouds
5:53 PM 71.1 °F 62.1 °F 73% 29.98 in 10.0 mi SSW 9.2 mph - N/A   Partly Cloudy
6:53 PM 69.1 °F 61.0 °F 75% 29.96 in 10.0 mi South 6.9 mph - N/A   Overcast
7:53 PM 66.0 °F 61.0 °F 84% 29.97 in 10.0 mi SW 4.6 mph - N/A   Partly Cloudy
8:53 PM 66.0 °F 61.0 °F 84% 29.97 in 10.0 mi SSW 4.6 mph - N/A   Partly Cloudy
9:53 PM 64.9 °F 61.0 °F 87% 29.98 in 10.0 mi Calm Calm - N/A   Scattered Clouds
10:53 PM 64.9 °F 61.0 °F 87% 29.99 in 10.0 mi South 4.6 mph - N/A   Mostly Cloudy
11:53 PM 64.9 °F 60.1 °F 84% 29.97 in 10.0 mi SSW 4.6 mph - N/A   Mostly Cloudy